Home > Time Zones > World Clock > Weather > Spain > Palma > Past weeks

Flag for Spain Weather past 2 weeks in Palma, Majorca, Spain

Now
75 °F

Passing clouds.


Feels Like: 75 °F
Forecast: 72 / 84 °F
Wind: 2 mph from North

Location: Palma De Mallorca / Son San Juan

Current Time: Sep 18, 2014 at 12:43:52 AM

Latest Report: Sep 18, 2014 at 12:00 AM


Visibility: N/A

Pressure: 29.80 "Hg

Humidity: 83%

Dew point: 70 °F

Location of PalmaLocation

Historic Weather in Palma — Graph

°F

Palma temperature yesterday

Maximum temperature yesterday: 86 °F (at 11:30 AM)
Minimum temperature yesterday: 70 °F (at 8:00 AM)
Average temperature yesterday: 79 °F

Past Weeks' High & Low Weather Summary

 TemperatureHumidityPressure
High93 °F (Sep 9, 2:00 PM)94% (Sep 3, 7:30 AM)30.04 "Hg (Sep 3, 7:30 AM)
Low66 °F (Sep 14, 6:30 AM)38% (Sep 16, 4:00 PM)29.74 "Hg (Sep 17, 5:30 AM)
Average78 °F74%29.91 "Hg
* Reported Sep 2 11:00 PM — Sep 17 11:30 PM, Palma, Weather by CustomWeather, © 2014

Note: Actual official high and low records may vary slightly from our data, if they occured in-between our weather recording intervals... More about our weather records

Advertising

Palma weather history for previous 24 hours

 ConditionsComfort  
Time TempWeatherWind HumidityBarometerVisibility
11:30 PM
Sep 17
75 °FPassing clouds.No wind83%29.80 "HgN/A
11:00 PM77 °FPassing clouds.No wind79%29.80 "HgN/A
10:30 PM79 °FClear.2 mph79%29.80 "Hg10 mi
10:00 PM79 °FClear.No wind74%29.80 "Hg10 mi
9:30 PM79 °FClear.2 mph79%29.80 "Hg10 mi
9:00 PM79 °FPassing clouds.5 mph74%29.77 "HgN/A
8:30 PM81 °FSunny.7 mph74%29.77 "Hg10 mi
8:00 PM81 °FSunny.7 mph70%29.77 "Hg10 mi
7:30 PM82 °FPassing clouds.9 mph62%29.77 "HgN/A
7:00 PM82 °FPassing clouds.9 mph58%29.74 "HgN/A
6:30 PM82 °FPassing clouds.9 mph62%29.74 "HgN/A
6:00 PM84 °FPassing clouds.12 mph58%29.74 "HgN/A
5:30 PM84 °FPassing clouds.14 mph62%29.74 "HgN/A
5:00 PM84 °FPassing clouds.13 mph66%29.74 "HgN/A
4:30 PM84 °FPassing clouds.12 mph66%29.74 "HgN/A
4:00 PM86 °FPassing clouds.13 mph62%29.77 "HgN/A
3:30 PM86 °FPassing clouds.10 mph62%29.77 "HgN/A
3:00 PM86 °FPassing clouds.12 mph62%29.77 "HgN/A
2:30 PM84 °FPassing clouds.14 mph66%29.77 "HgN/A
2:00 PM84 °FPassing clouds.14 mph66%29.77 "HgN/A
1:30 PM84 °FPassing clouds.15 mph66%29.77 "HgN/A
1:00 PM86 °FPassing clouds.14 mph62%29.77 "HgN/A
12:30 PM84 °FPassing clouds.8 mph66%29.77 "HgN/A
12:00 PM86 °FPassing clouds.7 mph59%29.77 "HgN/A
11:30 AM86 °FPassing clouds.No wind55%29.77 "HgN/A
11:00 AM84 °FPassing clouds.1 mph58%29.77 "HgN/A
10:30 AM82 °FPassing clouds.1 mph66%29.77 "HgN/A
10:00 AM81 °FPassing clouds.3 mph70%29.77 "HgN/A
9:30 AM77 °FPassing clouds.2 mph74%29.77 "HgN/A
9:00 AM75 °FSunny.2 mph78%29.77 "Hg10 mi
8:30 AM73 °FClear.2 mph83%29.77 "Hg10 mi
8:00 AM70 °FClear.2 mph94%29.74 "Hg10 mi
7:30 AM72 °FClear.2 mph88%29.77 "Hg10 mi
7:00 AM72 °FPassing clouds.No wind88%29.77 "HgN/A
6:30 AM72 °FPassing clouds.No wind88%29.77 "HgN/A
6:00 AM72 °FPassing clouds.2 mph88%29.74 "HgN/A
5:30 AM73 °FPassing clouds.1 mph89%29.74 "HgN/A
5:00 AM73 °FPassing clouds.2 mph83%29.77 "HgN/A
4:30 AM73 °FPassing clouds.3 mph89%29.77 "HgN/A
4:00 AM73 °FPassing clouds.1 mph83%29.77 "HgN/A
3:30 AM73 °FPassing clouds.No wind89%29.80 "HgN/A
3:00 AM73 °FPassing clouds.1 mph89%29.80 "HgN/A
2:30 AM73 °FPassing clouds.1 mph89%29.80 "HgN/A
2:00 AM73 °FPassing clouds.2 mph89%29.83 "HgN/A
1:30 AM75 °FPassing clouds.3 mph89%29.83 "HgN/A
1:00 AM75 °FPassing clouds.No wind89%29.83 "HgN/A
12:30 AM75 °FPassing clouds.1 mph89%29.83 "HgN/A
12:00 AM77 °FPassing clouds.No wind89%29.86 "HgN/A
Weather by CustomWeather, © 2014

See weather overviewHow to use our weather pages